• In Belarus
  • List of Countries
  • For 7 days
  • Water Temperature
  • Satellite Maps
  • Weather Map
  • Weather Widgets
  • user-avatar
    Login

    Hourly Weather Konstantyna

    Today, 23 October, Tuesday

    Time Temperature Precipitation Wind Pressure Humidity
    00:00 +14°C° 0.1 mm 4 mps 712 mmHg 79%
    01:00 +14°C° 0 mm 4 mps 712 mmHg 80%
    02:00 +13°C° 0 mm 4 mps 712 mmHg 81%
    03:00 +13°C° 0 mm 3 mps 712 mmHg 82%
    04:00 +13°C° 0 mm 3 mps 712 mmHg 83%
    05:00 +12°C° 0 mm 3 mps 712 mmHg 85%
    06:00 +13°C° 0 mm 2 mps 713 mmHg 86%
    07:00 +13°C° 0 mm 3 mps 713 mmHg 80%
    08:00 +14°C° 0 mm 4 mps 714 mmHg 74%
    09:00 +17°C° 0 mm 4 mps 714 mmHg 69%
    10:00 +17°C° 0.1 mm 4 mps 714 mmHg 67%
    11:00 +18°C° 0.1 mm 4 mps 714 mmHg 66%
    12:00 +18°C° 0.1 mm 4 mps 714 mmHg 64%
    13:00 +18°C° 0 mm 4 mps 714 mmHg 64%
    14:00 +18°C° 0 mm 4 mps 714 mmHg 64%
    15:00 +17°C° 0 mm 5 mps 713 mmHg 63%
    16:00 +17°C° 0 mm 4 mps 713 mmHg 68%
    17:00 +16°C° 0 mm 3 mps 714 mmHg 74%
    18:00 +14°C° 0 mm 3 mps 714 mmHg 79%
    19:00 +15°C° 0 mm 2 mps 714 mmHg 80%
    20:00 +15°C° 0 mm 2 mps 714 mmHg 82%
    21:00 +14°C° 0 mm 2 mps 714 mmHg 83%
    22:00 +14°C° 0 mm 2 mps 714 mmHg 84%
    23:00 +14°C° 0 mm 2 mps 714 mmHg 85%

    Tomorrow, 24 October, Wednesday

    Time Temperature Precipitation Wind Pressure Humidity
    00:00 +13°C° 0 mm 2 mps 713 mmHg 86%
    01:00 +13°C° 0 mm 2 mps 713 mmHg 87%
    02:00 +13°C° 0 mm 2 mps 713 mmHg 88%
    03:00 +13°C° 0 mm 2 mps 713 mmHg 89%
    04:00 +13°C° 0 mm 2 mps 713 mmHg 89%
    05:00 +13°C° 0 mm 2 mps 713 mmHg 89%
    06:00 +13°C° 0 mm 2 mps 713 mmHg 88%
    07:00 +14°C° 0 mm 2 mps 713 mmHg 84%
    08:00 +15°C° 0 mm 2 mps 714 mmHg 79%
    09:00 +16°C° 0 mm 2 mps 714 mmHg 74%
    10:00 +17°C° 0 mm 3 mps 714 mmHg 70%
    11:00 +17°C° 0 mm 3 mps 714 mmHg 67%
    12:00 +18°C° 0 mm 3 mps 714 mmHg 63%
    13:00 +18°C° 0 mm 3 mps 713 mmHg 63%
    14:00 +18°C° 0 mm 3 mps 713 mmHg 63%
    15:00 +18°C° 0 mm 3 mps 713 mmHg 63%
    16:00 +17°C° 0 mm 3 mps 713 mmHg 67%
    17:00 +16°C° 0 mm 2 mps 713 mmHg 71%
    18:00 +16°C° 0 mm 2 mps 713 mmHg 76%
    19:00 +15°C° 0 mm 1 mps 713 mmHg 79%
    20:00 +15°C° 0 mm 1 mps 713 mmHg 82%
    21:00 +14°C° 0 mm 1 mps 713 mmHg 85%
    22:00 +14°C° 0 mm 1 mps 713 mmHg 86%
    23:00 +13°C° 0 mm 1 mps 713 mmHg 86%

    Day after tomorrow, 25 October, Thursday

    Time Temperature Precipitation Wind Pressure Humidity
    00:00 +13°C° 0 mm 1 mps 713 mmHg 87%
    01:00 +13°C° 0 mm 1 mps 712 mmHg 88%
    02:00 +13°C° 0 mm 1 mps 712 mmHg 88%
    03:00 +12°C° 0 mm 1 mps 712 mmHg 88%
    04:00 +12°C° 0 mm 1 mps 712 mmHg 88%
    05:00 +12°C° 0 mm 1 mps 712 mmHg 87%
    06:00 +12°C° 0 mm 1 mps 712 mmHg 87%
    07:00 +14°C° 0 mm 1 mps 713 mmHg 77%
    08:00 +16°C° 0 mm 1 mps 713 mmHg 68%
    09:00 +18°C° 0 mm 1 mps 714 mmHg 58%
    10:00 +20°C° 0 mm 1 mps 714 mmHg 53%
    11:00 +21°C° 0 mm 1 mps 714 mmHg 48%
    12:00 +20°C° 0 mm 0 mps 714 mmHg 43%
    13:00 +22°C° 0 mm 1 mps 713 mmHg 42%
    14:00 +22°C° 0 mm 1 mps 713 mmHg 40%
    15:00 +22°C° 0 mm 1 mps 713 mmHg 39%
    16:00 +21°C° 0 mm 1 mps 712 mmHg 45%
    17:00 +20°C° 0 mm 1 mps 712 mmHg 52%
    18:00 +19°C° 0 mm 1 mps 712 mmHg 58%
    19:00 +18°C° 0 mm 1 mps 712 mmHg 59%
    20:00 +18°C° 0 mm 1 mps 712 mmHg 59%
    21:00 +18°C° 0 mm 1 mps 712 mmHg 60%
    22:00 +16°C° 0 mm 1 mps 712 mmHg 59%
    23:00 +16°C° 0 mm 2 mps 712 mmHg 58%

    26 October, Friday

    Time Temperature Precipitation Wind Pressure Humidity
    00:00 +16°C° 0 mm 2 mps 712 mmHg 57%
    01:00 +16°C° 0 mm 2 mps 711 mmHg 58%
    02:00 +15°C° 0 mm 2 mps 711 mmHg 58%
    03:00 +15°C° 0 mm 2 mps 711 mmHg 59%
    04:00 +15°C° 0 mm 2 mps 711 mmHg 59%
    05:00 +14°C° 0 mm 2 mps 711 mmHg 60%
    06:00 +14°C° 0 mm 2 mps 711 mmHg 61%
    07:00 +16°C° 0 mm 3 mps 711 mmHg 54%
    08:00 +18°C° 0 mm 3 mps 711 mmHg 48%
    09:00 +20°C° 0 mm 3 mps 712 mmHg 42%
    10:00 +21°C° 0 mm 4 mps 711 mmHg 38%
    11:00 +22°C° 0 mm 4 mps 711 mmHg 34%
    12:00 +25°C° 0 mm 4 mps 711 mmHg 30%
    13:00 +25°C° 0 mm 4 mps 711 mmHg 29%
    14:00 +25°C° 0 mm 4 mps 710 mmHg 29%
    15:00 +25°C° 0 mm 5 mps 710 mmHg 29%
    16:00 +22°C° 0 mm 4 mps 710 mmHg 33%
    17:00 +20°C° 0 mm 3 mps 710 mmHg 37%
    18:00 +19°C° 0 mm 3 mps 710 mmHg 41%
    19:00 +18°C° 0 mm 3 mps 710 mmHg 43%
    20:00 +18°C° 0 mm 3 mps 710 mmHg 45%
    21:00 +17°C° 0 mm 3 mps 710 mmHg 47%
    22:00 +17°C° 0 mm 3 mps 709 mmHg 48%
    23:00 +17°C° 0 mm 3 mps 709 mmHg 49%

    27 October, Saturday

    Time Temperature Precipitation Wind Pressure Humidity
    00:00 +16°C° 0 mm 3 mps 709 mmHg 50%
    01:00 +16°C° 0 mm 3 mps 709 mmHg 50%
    02:00 +16°C° 0 mm 3 mps 708 mmHg 50%
    03:00 +16°C° 0 mm 3 mps 708 mmHg 50%
    04:00 +16°C° 0 mm 3 mps 708 mmHg 50%
    05:00 +14°C° 0 mm 3 mps 708 mmHg 51%
    06:00 +14°C° 0 mm 3 mps 708 mmHg 52%
    07:00 +17°C° 0 mm 3 mps 708 mmHg 48%
    08:00 +18°C° 0 mm 4 mps 708 mmHg 43%
    09:00 +20°C° 0 mm 4 mps 709 mmHg 39%
    10:00 +21°C° 0 mm 5 mps 708 mmHg 35%
    11:00 +23°C° 0 mm 6 mps 708 mmHg 32%
    12:00 +24°C° 0 mm 7 mps 707 mmHg 28%
    13:00 +24°C° 0 mm 7 mps 707 mmHg 30%
    14:00 +23°C° 0 mm 7 mps 707 mmHg 33%
    15:00 +23°C° 0 mm 7 mps 706 mmHg 35%
    16:00 +22°C° 0 mm 5 mps 706 mmHg 41%
    17:00 +20°C° 0 mm 4 mps 707 mmHg 48%
    18:00 +19°C° 0 mm 3 mps 707 mmHg 54%
    19:00 +18°C° 0 mm 3 mps 707 mmHg 57%
    20:00 +18°C° 0 mm 3 mps 707 mmHg 60%
    21:00 +18°C° 0 mm 2 mps 707 mmHg 63%
    22:00 +17°C° 0.2 mm 2 mps 706 mmHg 66%
    23:00 +17°C° 0.2 mm 2 mps 706 mmHg 68%

    28 October, Sunday

    Time Temperature Precipitation Wind Pressure Humidity
    00:00 +16°C° 0.2 mm 2 mps 706 mmHg 71%
    01:00 +16°C° 0.2 mm 1 mps 706 mmHg 72%
    02:00 +16°C° 0.2 mm 1 mps 705 mmHg 74%
    03:00 +15°C° 0.2 mm 1 mps 705 mmHg 76%
    04:00 +15°C° 0.1 mm 1 mps 705 mmHg 77%
    05:00 +15°C° 0.1 mm 1 mps 705 mmHg 79%
    06:00 +15°C° 0.1 mm 1 mps 705 mmHg 80%
    07:00 +15°C° 0.4 mm 1 mps 705 mmHg 77%
    08:00 +16°C° 0.4 mm 1 mps 705 mmHg 75%
    09:00 +16°C° 0.4 mm 1 mps 705 mmHg 72%
    10:00 +18°C° 0.6 mm 1 mps 705 mmHg 69%
    11:00 +17°C° 0.6 mm 2 mps 704 mmHg 67%
    12:00 +18°C° 0.6 mm 2 mps 704 mmHg 64%
    13:00 +18°C° 0.6 mm 3 mps 703 mmHg 66%
    14:00 +17°C° 0.6 mm 3 mps 702 mmHg 69%
    15:00 +17°C° 0.6 mm 3 mps 702 mmHg 71%
    16:00 +16°C° 0.5 mm 3 mps 701 mmHg 74%
    17:00 +16°C° 0.5 mm 3 mps 701 mmHg 77%
    18:00 +16°C° 0.5 mm 2 mps 701 mmHg 80%
    19:00 +14°C° 0.8 mm 3 mps 700 mmHg 79%
    20:00 +14°C° 0.8 mm 3 mps 700 mmHg 79%
    21:00 +14°C° 0.8 mm 3 mps 699 mmHg 78%
    22:00 +14°C° 0.4 mm 4 mps 698 mmHg 77%
    23:00 +14°C° 0.4 mm 4 mps 698 mmHg 76%

    29 October, Monday

    Time Temperature Precipitation Wind Pressure Humidity
    00:00 +14°C° 0.4 mm 5 mps 697 mmHg 75%
    01:00 +13°C° 0.3 mm 6 mps 697 mmHg 69%
    02:00 +11°C° 0.3 mm 7 mps 696 mmHg 63%
    03:00 +10°C° 0.3 mm 8 mps 696 mmHg 57%
    04:00 +9°C° 0.1 mm 7 mps 696 mmHg 61%
    05:00 +8°C° 0.1 mm 6 mps 696 mmHg 65%
    06:00 +8°C° 0.1 mm 5 mps 697 mmHg 68%
    07:00 +8°C° 2.2 mm 7 mps 698 mmHg 73%
    08:00 +7°C° 2.2 mm 9 mps 699 mmHg 78%
    09:00 +7°C° 2.2 mm 11 mps 700 mmHg 82%
    10:00 +7°C° 0.5 mm 11 mps 700 mmHg 78%
    11:00 +7°C° 0.5 mm 11 mps 701 mmHg 74%
    12:00 +7°C° 0.5 mm 11 mps 702 mmHg 70%
    13:00 +7°C° 0.4 mm 10 mps 702 mmHg 70%
    14:00 +7°C° 0.4 mm 9 mps 703 mmHg 69%
    15:00 +6°C° 0.4 mm 9 mps 703 mmHg 69%
    16:00 +6°C° 0.3 mm 7 mps 703 mmHg 71%
    17:00 +7°C° 0.3 mm 6 mps 704 mmHg 73%
    18:00 +6°C° 0.3 mm 4 mps 704 mmHg 75%
    19:00 +6°C° 0.2 mm 4 mps 705 mmHg 75%
    20:00 +6°C° 0.2 mm 4 mps 705 mmHg 75%
    21:00 +6°C° 0.2 mm 4 mps 705 mmHg 75%
    22:00 +6°C° 0.1 mm 4 mps 705 mmHg 74%
    23:00 +5°C° 0.1 mm 4 mps 705 mmHg 73%
    Show more